�N����,����,�g�[���i���ԁj���x,�g�[�����x,��g�[���i���ցj���x,����
 2002/12/01, 0:00,21.2,57,13.7,13
 2002/12/01, 0:15,21.2,56,13.7,13
 2002/12/01, 0:30,21.1,56,13.6,13
 2002/12/01, 0:45,21.1,56,13.7,13
 2002/12/01, 1:00,21.1,56,13.7,13
 2002/12/01, 1:15,21,56,13.6,13.1
 2002/12/01, 1:30,21.1,55,13.7,13.1
 2002/12/01, 1:45,21.1,55,13.6,13.1
 2002/12/01, 2:00,21.5,54,13.6,13.1
 2002/12/01, 2:15,21.1,56,13.7,13.1
 2002/12/01, 2:30,21,56,13.8,13.1
 2002/12/01, 2:45,21.7,54,13.9,13.1
 2002/12/01, 3:00,20.1,52,14.1,13.1
 2002/12/01, 3:15,18.9,52.5,14.1,13.1
 2002/12/01, 3:30,18.1,54,14.2,13.1
 2002/12/01, 3:45,17.6,54.5,14.1,13.1
 2002/12/01, 4:00,17.2,56,14.1,13.1
 2002/12/01, 4:15,16.9,56.5,14.1,13.1
 2002/12/01, 4:30,16.5,57,14.1,13.1
 2002/12/01, 4:45,16.3,58,14.1,13.1
 2002/12/01, 5:00,16,59,14,13.2
 2002/12/01, 5:15,15.9,59.5,13.9,13.2
 2002/12/01, 5:30,15.6,60,13.9,13.2
 2002/12/01, 5:45,15.4,61,13.9,13.2
 2002/12/01, 6:00,15.3,61,13.8,13.2
 2002/12/01, 6:15,15.1,62,13.8,13.2
 2002/12/01, 6:30,15,62,13.7,13.2
 2002/12/01, 6:45,14.9,62.5,13.6,13.2
 2002/12/01, 7:00,14.7,63,13.6,13.2
 2002/12/01, 7:15,14.6,63,13.6,13.2
 2002/12/01, 7:30,14.6,63,13.6,13.2
 2002/12/01, 7:45,14.4,64,13.5,13.2
 2002/12/01, 8:00,14.4,64,13.5,13.2
 2002/12/01, 8:15,14.4,64,13.5,13.2
 2002/12/01, 8:30,14.2,64,13.5,13.2
 2002/12/01, 8:45,14.2,64,13.5,13.2
 2002/12/01, 9:00,14.2,65,13.5,13.2
 2002/12/01, 9:15,14.1,64.5,13.6,13.2
 2002/12/01, 9:30,14.1,65,13.6,13.2
 2002/12/01, 9:45,14.1,65,13.6,13.2
 2002/12/01,10:00,14.1,65,13.5,13.3
 2002/12/01,10:15,18.1,56.5,13.6,13.3
 2002/12/01,10:30,19.5,55,13.6,13.3
 2002/12/01,10:45,19.3,57,13.6,13.3
 2002/12/01,11:00,17.3,59,14,13.3
 2002/12/01,11:15,16.5,59,14.2,13.3
 2002/12/01,11:30,16,60,14.3,13.3
 2002/12/01,11:45,15.8,61,14.3,13.3
 2002/12/01,12:00,15.6,62,14.4,13.3
 2002/12/01,12:15,15.4,62,14.4,13.3
 2002/12/01,12:30,15.3,62,14.4,13.3
 2002/12/01,12:45,15.2,63,14.4,13.4
 2002/12/01,13:00,15.1,64,14.4,13.4
 2002/12/01,13:15,15.1,64,14.5,13.4
 2002/12/01,13:30,15,65,14.5,13.4
 2002/12/01,13:45,15,65,14.5,13.4
 2002/12/01,14:00,14.9,65,14.5,13.5
 2002/12/01,14:15,14.9,65,14.5,13.5
 2002/12/01,14:30,14.9,65,14.5,13.5
 2002/12/01,14:45,14.9,65.5,14.6,13.5
 2002/12/01,15:00,14.8,66,14.5,13.5
 2002/12/01,15:15,14.8,66,14.5,13.6
 2002/12/01,15:30,14.8,66,14.5,13.6
 2002/12/01,15:45,14.8,66,14.6,13.6
 2002/12/01,16:00,14.8,66,14.6,13.6
 2002/12/01,16:15,14.8,66,14.6,13.6
 2002/12/01,16:30,14.7,66,14.5,13.7
 2002/12/01,16:45,14.7,67,14.5,13.7
 2002/12/01,17:00,14.7,67,14.5,13.7
 2002/12/01,17:15,14.6,67,14.4,13.7
 2002/12/01,17:30,14.6,67,14.3,13.7
 2002/12/01,17:45,14.5,67,14.4,13.8
 2002/12/01,18:00,14.5,67,14.3,13.8
 2002/12/01,18:15,14.4,69,14.3,13.8
 2002/12/01,18:30,14.6,71,14.3,13.8
 2002/12/01,18:45,14.6,69.5,14.2,13.8
 2002/12/01,19:00,14.5,69,14.1,13.9
 2002/12/01,19:15,14.4,68,14.1,13.9
 2002/12/01,19:30,14.3,68,14,13.9
 2002/12/01,19:45,14.2,68,13.9,13.9
 2002/12/01,20:00,14.1,68,13.9,13.9
 2002/12/01,20:15,14,67.5,13.8,13.9
 2002/12/01,20:30,14,67,13.7,13.9
 2002/12/01,20:45,13.9,67.5,13.6,13.9
 2002/12/01,21:00,13.8,68,13.6,13.9
 2002/12/01,21:15,13.8,68,13.6,13.9
 2002/12/01,21:30,17.6,57,13.5,13.9
 2002/12/01,21:45,20,57,13.5,13.9
 2002/12/01,22:00,20.7,57,13.5,13.9
 2002/12/01,22:15,21,56.5,13.5,13.9
 2002/12/01,22:30,21.5,57,13.5,13.9
 2002/12/01,22:45,21,58,13.5,13.9
 2002/12/01,23:00,21.2,57,13.5,13.9
 2002/12/01,23:15,21.2,57,13.4,13.8
 2002/12/01,23:30,21.1,57,13.6,13.8
 2002/12/01,23:45,21.3,56.5,13.6,13.8
 2002/12/02, 0:00,21.5,56,13.6,13.8
 2002/12/02, 0:15,21.6,55,13.6,13.8
 2002/12/02, 0:30,21.5,56,13.5,13.7
 2002/12/02, 0:45,21.5,55,13.4,13.7
 2002/12/02, 1:00,21.5,55,13.5,13.7
 2002/12/02, 1:15,21.6,55,13.4,13.4
 2002/12/02, 1:30,21.6,55,13.4,13.1
 2002/12/02, 1:45,21.6,55,13.4,13.1
 2002/12/02, 2:00,21.6,55,13.4,13.1
 2002/12/02, 2:15,20.6,58,13.4,13.1
 2002/12/02, 2:30,19.4,59,13.3,13.1
 2002/12/02, 2:45,18.7,59.5,13.4,13.1
 2002/12/02, 3:00,18.1,60,13.2,13
 2002/12/02, 3:15,17.5,61,13.3,13
 2002/12/02, 3:30,17,62,13.3,13
 2002/12/02, 3:45,16.7,62.5,13.1,13
 2002/12/02, 4:00,16.4,62,13.2,12.9
 2002/12/02, 4:15,15.9,59,13.2,12.9
 2002/12/02, 4:30,15.6,60,13.2,12.9
 2002/12/02, 4:45,15.2,60,13.1,12.9
 2002/12/02, 5:00,15,60,13.1,12.9
 2002/12/02, 5:15,14.7,60.5,13,12.9
 2002/12/02, 5:30,14.5,61,13,12.8
 2002/12/02, 5:45,14.2,61,12.9,12.8
 2002/12/02, 6:00,14.1,62,12.9,12.8
 2002/12/02, 6:15,13.9,62,12.9,12.8
 2002/12/02, 6:30,13.8,63,12.8,12.8
 2002/12/02, 6:45,13.6,63,12.8,12.7
 2002/12/02, 7:00,13.6,63,12.7,12.7
 2002/12/02, 7:15,13.4,64,12.6,12.9
 2002/12/02, 7:30,16.8,56,12.6,13.1
 2002/12/02, 7:45,19.4,54.5,12.6,13.1
 2002/12/02, 8:00,20.7,55,12.7,13
 2002/12/02, 8:15,22,52,12.8,13
 2002/12/02, 8:30,22.8,51,12.9,13
 2002/12/02, 8:45,22,53,13.1,13
 2002/12/02, 9:00,21.4,54,13.1,13
 2002/12/02, 9:15,21.5,54.5,13.2,13
 2002/12/02, 9:30,21.6,54,13.3,13
 2002/12/02, 9:45,22,54,13.4,13
 2002/12/02,10:00,21.8,55,13.5,13
 2002/12/02,10:15,22.2,53.5,13.6,13
 2002/12/02,10:30,22.6,52,13.6,13
 2002/12/02,10:45,22.3,53,13.8,13
 2002/12/02,11:00,22.6,53,13.9,13
 2002/12/02,11:15,22.8,52,14.1,13
 2002/12/02,11:30,23,52,14.2,13
 2002/12/02,11:45,22.6,52,14.4,13
 2002/12/02,12:00,22.4,52,14.5,13
 2002/12/02,12:15,22.5,52,14.7,13
 2002/12/02,12:30,22.4,51,15,13
 2002/12/02,12:45,22.4,49,15.1,13.1
 2002/12/02,13:00,22.3,49,15.3,13.1
 2002/12/02,13:15,22.1,50,15.4,13.1
 2002/12/02,13:30,22,50,15.6,13.1
 2002/12/02,13:45,22,46.5,15.8,13.1
 2002/12/02,14:00,21.8,47,15.9,13.2
 2002/12/02,14:15,21.2,51,15.9,13.2
 2002/12/02,14:30,20.6,53,15.9,13.2
 2002/12/02,14:45,20.2,53.5,15.9,13.2
 2002/12/02,15:00,20.1,54,15.9,13.3
 2002/12/02,15:15,20,54,16,13.3
 2002/12/02,15:30,19.6,54,16.4,13.4
 2002/12/02,15:45,19,51.5,16.5,13.4
 2002/12/02,16:00,18.7,48,16.4,13.4
 2002/12/02,16:15,18.7,50.5,16.2,13.5
 2002/12/02,16:30,18.7,53,16.1,13.5
 2002/12/02,16:45,18.6,54.5,16,13.6
 2002/12/02,17:00,18.6,55,15.9,13.6
 2002/12/02,17:15,18.5,55.5,15.9,13.6
 2002/12/02,17:30,18.2,55,16.1,13.7
 2002/12/02,17:45,17.9,54.5,16,13.7
 2002/12/02,18:00,17.6,55,15.9,13.8
 2002/12/02,18:15,17.4,56,15.9,13.8
 2002/12/02,18:30,17.2,57,15.8,13.8
 2002/12/02,18:45,17,57.5,15.6,13.9
 2002/12/02,19:00,16.8,58,15.6,13.9
 2002/12/02,19:15,16.6,59,15.5,13.9
 2002/12/02,19:30,17,58,15.4,13.9
 2002/12/02,19:45,17,57.5,15.3,14
 2002/12/02,20:00,16.8,58,15.3,14
 2002/12/02,20:15,18.4,54.5,15.1,14
 2002/12/02,20:30,19.9,53,15.1,14
 2002/12/02,20:45,20.5,55,14.9,14.1
 2002/12/02,21:00,21,57,14.9,14.1
 2002/12/02,21:15,20.9,57.5,14.8,14.1
 2002/12/02,21:30,20.7,56,14.7,14.1
 2002/12/02,21:45,20.5,55.5,14.6,14.1
 2002/12/02,22:00,20.5,55,14.5,14.1
 2002/12/02,22:15,20.5,54.5,14.5,14.1
 2002/12/02,22:30,20.6,56,14.5,14.1
 2002/12/02,22:45,20.6,56,14.5,14.1
 2002/12/02,23:00,20.8,56,14.5,14.1
 2002/12/02,23:15,20.6,57.5,14.4,14.1
 2002/12/02,23:30,20.5,58,14.3,14.1
 2002/12/02,23:45,20.9,55,14.3,14.1
 2002/12/03, 0:00,20.7,57,14.3,14.1
 2002/12/03, 0:15,20.6,56.5,14.2,14.1
 2002/12/03, 0:30,20.6,56,14.1,14.1
 2002/12/03, 0:45,20.5,56,14.1,14.1
 2002/12/03, 1:00,20.5,56,14.1,14
 2002/12/03, 1:15,20.5,56,14,14
 2002/12/03, 1:30,20.3,56,14,14
 2002/12/03, 1:45,19,51,14.2,14
 2002/12/03, 2:00,18,52,14.2,14
 2002/12/03, 2:15,17.4,53,14.2,13.8
 2002/12/03, 2:30,16.9,54,14.1,13.6
 2002/12/03, 2:45,16.5,55,14,13.6
 2002/12/03, 3:00,16.2,55,13.9,13.5
 2002/12/03, 3:15,15.8,56,13.8,13.5
 2002/12/03, 3:30,15.5,57,13.7,13.5
 2002/12/03, 3:45,15.3,57,13.6,13.5
 2002/12/03, 4:00,15.1,58,13.6,13.5
 2002/12/03, 4:15,14.9,58,13.5,13.5
 2002/12/03, 4:30,14.7,58,13.5,13.5
 2002/12/03, 4:45,14.6,58.5,13.4,13.4
 2002/12/03, 5:00,14.4,59,13.3,13.4
 2002/12/03, 5:15,14.2,59,13.2,13.4
 2002/12/03, 5:30,14.1,59,13.2,13.4
 2002/12/03, 5:45,14.1,59.5,13.1,13.4
 2002/12/03, 6:00,13.9,59,13,13.4
 2002/12/03, 6:15,13.8,60,12.9,13.3
 2002/12/03, 6:30,13.6,60,12.8,13.3
 2002/12/03, 6:45,13.4,60,12.7,13.3
 2002/12/03, 7:00,13.3,60,12.6,13.3
 2002/12/03, 7:15,13.2,60,12.6,13.2
 2002/12/03, 7:30,15.9,54,12.5,13.2
 2002/12/03, 7:45,18.6,53,12.6,12.6
 2002/12/03, 8:00,19.9,54,12.6,12.6
 2002/12/03, 8:15,20,54,12.6,12.6
 2002/12/03, 8:30,20.8,53,12.7,12.6
 2002/12/03, 8:45,20.8,53,12.8,12.6
 2002/12/03, 9:00,21.2,52,12.8,12.6
 2002/12/03, 9:15,20.7,54,12.9,12.6
 2002/12/03, 9:30,20.8,54,13,12.6
 2002/12/03, 9:45,21.2,52,13.1,12.6
 2002/12/03,10:00,21.3,52,13.2,12.6
 2002/12/03,10:15,21.6,50.5,13.3,12.6
 2002/12/03,10:30,22.1,50,13.4,12.6
 2002/12/03,10:45,22.4,50,13.4,12.6
 2002/12/03,11:00,22.3,50,13.7,12.6
 2002/12/03,11:15,22,49,13.9,12.6
 2002/12/03,11:30,21.9,48,14,12.6
 2002/12/03,11:45,21.8,47,14.2,12.6
 2002/12/03,12:00,21.6,48,14.3,12.6
 2002/12/03,12:15,21.6,48,14.4,12.6
 2002/12/03,12:30,21.4,49,14.5,12.7
 2002/12/03,12:45,21,54,14.6,12.7
 2002/12/03,13:00,20.8,54,14.7,12.7
 2002/12/03,13:15,20.6,51,14.9,12.7
 2002/12/03,13:30,20.5,52,14.9,12.7
 2002/12/03,13:45,20.2,53.5,15,12.8
 2002/12/03,14:00,20,54,15.1,12.8
 2002/12/03,14:15,20.2,53,15.1,12.8
 2002/12/03,14:30,20.3,53,15.3,12.9
 2002/12/03,14:45,20.1,53.5,15.4,12.9
 2002/12/03,15:00,19.8,54,15.4,12.9
 2002/12/03,15:15,19.4,55,15.6,13
 2002/12/03,15:30,18.9,52,15.9,13
 2002/12/03,15:45,18.4,53.5,15.9,13.1
 2002/12/03,16:00,18.1,54,16,13.5
 2002/12/03,16:15,17.8,53,15.9,13.6
 2002/12/03,16:30,17.6,54,15.8,13.5
 2002/12/03,16:45,17.3,54,15.7,13.6
 2002/12/03,17:00,17.1,54,15.7,13.6
 2002/12/03,17:15,16.9,55,15.6,13.6
 2002/12/03,17:30,16.8,55,15.6,13.7
 2002/12/03,17:45,16.6,55,15.5,13.7
 2002/12/03,18:00,16.5,55,15.5,13.7
 2002/12/03,18:15,16.4,56.5,15.5,13.8
 2002/12/03,18:30,16.3,57,15.5,13.8
 2002/12/03,18:45,16.3,60,15.5,13.8
 2002/12/03,19:00,16.4,63,15.4,13.8
 2002/12/03,19:15,16.4,64,15.5,13.9
 2002/12/03,19:30,16.5,73,15.3,13.9
 2002/12/03,19:45,16.9,82.5,15.1,13.9
 2002/12/03,20:00,17.1,91,15.1,13.9
 2002/12/03,20:15,17.2,92,15.1,13.9
 2002/12/03,20:30,17.4,94,15,14
 2002/12/03,20:45,17.5,91.5,15,13.9
 2002/12/03,21:00,17.4,85,15,14
 2002/12/03,21:15,18.6,75.5,14.9,14
 2002/12/03,21:30,19.5,71,14.9,14
 2002/12/03,21:45,19.8,69,14.9,14.1
 2002/12/03,22:00,20,67,14.9,14.1
 2002/12/03,22:15,20.4,64,14.9,14.1
 2002/12/03,22:30,21.1,61,14.9,14.2
 2002/12/03,22:45,20.8,62,14.9,14.2
 2002/12/03,23:00,20.6,62,15,14.2
 2002/12/03,23:15,20.8,61,14.9,14.2
 2002/12/03,23:30,20.9,60,15,14.3
 2002/12/03,23:45,20.9,59.5,15,14.3
 2002/12/04, 0:00,20.9,59,14.9,14.3
 2002/12/04, 0:15,21,59,14.9,14.3
 2002/12/04, 0:30,20.9,58,15,14.3
 2002/12/04, 0:45,20.9,59.5,15,14.3
 2002/12/04, 1:00,21,61,15,14.3
 2002/12/04, 1:15,21,60.5,14.9,14.4
 2002/12/04, 1:30,20.8,62,14.9,14.4
 2002/12/04, 1:45,19.9,64,15,14.4
 2002/12/04, 2:00,19.4,66,15.1,14.4
 2002/12/04, 2:15,19.1,68,15,14.4
 2002/12/04, 2:30,18.6,62,15.1,14.4
 2002/12/04, 2:45,18.3,62.5,14.9,14.4
 2002/12/04, 3:00,18,63,15,13.6
 2002/12/04, 3:15,17.9,64,14.9,13.6
 2002/12/04, 3:30,17.6,64,14.9,13.6
 2002/12/04, 3:45,17.5,64,14.9,13.6
 2002/12/04, 4:00,17.2,64,14.9,13.7
 2002/12/04, 4:15,20.2,58.5,14.8,13.7
 2002/12/04, 4:30,22.2,53,14.8,13.7
 2002/12/04, 4:45,19.2,55.5,14.9,13.7
 2002/12/04, 5:00,18,57,14.8,13.7
 2002/12/04, 5:15,17.5,58.5,14.9,13.7
 2002/12/04, 5:30,17,60,14.8,13.8
 2002/12/04, 5:45,16.7,60.5,14.7,13.8
 2002/12/04, 6:00,16.4,61,14.7,13.8
 2002/12/04, 6:15,16.2,62,14.6,13.8
 2002/12/04, 6:30,15.9,63,14.6,13.8
 2002/12/04, 6:45,15.8,63,14.5,13.8
 2002/12/04, 7:00,15.6,63,14.5,13.8
 2002/12/04, 7:15,15.6,64,14.5,13.8
 2002/12/04, 7:30,17,62,14.4,13.9
 2002/12/04, 7:45,20.1,53,14.5,13.9
 2002/12/04, 8:00,21.2,54,14.5,13.9
 2002/12/04, 8:15,21.5,56.5,14.6,13.9
 2002/12/04, 8:30,22.5,54,14.6,13.9
 2002/12/04, 8:45,22.7,53.5,14.6,13.9
 2002/12/04, 9:00,22.4,54,14.7,13.9
 2002/12/04, 9:15,22.5,54.5,14.7,13.9
 2002/12/04, 9:30,21.6,56,14.7,13.9
 2002/12/04, 9:45,21.4,56.5,14.9,13.9
 2002/12/04,10:00,20.9,58,14.8,14
 2002/12/04,10:15,19.9,57,14.9,14
 2002/12/04,10:30,19.1,55,15.1,14
 2002/12/04,10:45,19.1,55,15.2,14
 2002/12/04,11:00,19.2,56,15.4,14
 2002/12/04,11:15,19,56.5,15.5,14.1
 2002/12/04,11:30,19.1,56,15.6,14.1
 2002/12/04,11:45,19,56.5,15.8,14.1
 2002/12/04,12:00,18.8,57,15.8,14.1
 2002/12/04,12:15,18.9,57.5,15.9,14.1
 2002/12/04,12:30,19.2,57,16,14.1
 2002/12/04,12:45,19,57.5,16.1,14.1
 2002/12/04,13:00,18.6,59,16.2,14.2
 2002/12/04,13:15,18.3,59.5,16.3,14.2
 2002/12/04,13:30,18.1,60,16.3,14.2
 2002/12/04,13:45,17.9,60.5,16.3,14.2
 2002/12/04,14:00,17.8,61,16.3,14.3
 2002/12/04,14:15,17.6,62,16.3,14.3
 2002/12/04,14:30,17.5,62,16.3,14.3
 2002/12/04,14:45,17.5,62.5,16.3,14.4
 2002/12/04,15:00,17.3,64,16.3,14.4
 2002/12/04,15:15,17.4,64,16.2,14.4
 2002/12/04,15:30,20.4,58,16.2,14.4
 2002/12/04,15:45,20.8,59.5,16.2,14.5
 2002/12/04,16:00,20.5,61,16.2,14.5
 2002/12/04,16:15,20.5,61.5,16.2,14.5
 2002/12/04,16:30,19.7,63,16.3,14.6
 2002/12/04,16:45,19.1,63.5,16.4,14.6
 2002/12/04,17:00,18.6,62,16.5,14.6
 2002/12/04,17:15,18.2,63.5,16.6,14.7
 2002/12/04,17:30,18,64,16.6,14.7
 2002/12/04,17:45,17.9,64.5,16.5,14.7
 2002/12/04,18:00,17.7,65,16.6,14.8
 2002/12/04,18:15,17.6,65.5,16.6,14.8
 2002/12/04,18:30,17.6,66,16.6,14.8
 2002/12/04,18:45,17.6,66,16.9,14.9
 2002/12/04,19:00,17.5,67,16.8,14.9
 2002/12/04,19:15,17.5,68,16.7,14.9
 2002/12/04,19:30,17.4,69,16.6,14.9
 2002/12/04,19:45,17.4,69,16.5,14.9
 2002/12/04,20:00,17.3,69,16.5,15
 2002/12/04,20:15,20.2,64,16.4,15
 2002/12/04,20:30,20.2,67,16.4,15
 2002/12/04,20:45,20.4,68,16.4,15.1
 2002/12/04,21:00,20.6,67,16.4,15.1
 2002/12/04,21:15,21,66.5,16.4,15.1
 2002/12/04,21:30,21.2,67,16.4,15.1
 2002/12/04,21:45,21.2,67.5,16.4,15.2
 2002/12/04,22:00,21.4,67,16.4,15.2
 2002/12/04,22:15,21.5,66.5,16.4,15.2
 2002/12/04,22:30,21.6,66,16.4,15.3
 2002/12/04,22:45,21.8,66.5,16.4,15.3
 2002/12/04,23:00,21.9,67,16.4,15.3
 2002/12/04,23:15,22,67.5,16.4,15.3
 2002/12/04,23:30,22.2,69,16.3,15.4
 2002/12/04,23:45,22.3,68,16.3,15.4
 2002/12/05, 0:00,22.3,68,16.3,15.4
 2002/12/05, 0:15,22.3,66.5,16.2,15.4
 2002/12/05, 0:30,22.3,66,16.3,15.4
 2002/12/05, 0:45,22.4,65,16.2,15.5
 2002/12/05, 1:00,22.4,64,16.2,15.5
 2002/12/05, 1:15,22.4,64,16.1,15.5
 2002/12/05, 1:30,22.4,64,16.1,15.5
 2002/12/05, 1:45,21.5,65,16.1,15.5
 2002/12/05, 2:00,20.8,68,16,15.5
 2002/12/05, 2:15,20.3,68,16,15.6
 2002/12/05, 2:30,19.9,68,15.9,15.6
 2002/12/05, 2:45,19.5,68.5,15.9,15.6
 2002/12/05, 3:00,19.3,69,15.8,15.6
 2002/12/05, 3:15,19,69,15.8,15.6
 2002/12/05, 3:30,18.8,70,15.7,15.6
 2002/12/05, 3:45,18.6,69.5,15.6,15.6
 2002/12/05, 4:00,18.5,69,15.6,15.6
 2002/12/05, 4:15,18.4,69.5,15.5,15.6
 2002/12/05, 4:30,18.2,69,15.4,15.6
 2002/12/05, 4:45,18,69,15.5,15.6
 2002/12/05, 5:00,17.6,68,15.6,15.7
 2002/12/05, 5:15,17.4,67.5,15.6,15.7
 2002/12/05, 5:30,17.1,68,15.5,15.6
 2002/12/05, 5:45,17,68,15.4,15.6
 2002/12/05, 6:00,16.7,68,15.4,14.6
 2002/12/05, 6:15,16.6,68.5,15.4,14.6
 2002/12/05, 6:30,16.4,69,15.2,14.7
 2002/12/05, 6:45,16.2,69,15.1,14.7
 2002/12/05, 7:00,16.1,69,15.1,14.7
 2002/12/05, 7:15,15.9,69,15.1,14.7
 2002/12/05, 7:30,18.3,63,14.9,14.7
 2002/12/05, 7:45,19.8,61,14.8,14.4
 2002/12/05, 8:00,19.9,64,14.8,14.2
 2002/12/05, 8:15,20.6,62.5,14.8,14.2
 2002/12/05, 8:30,21,62,14.8,14.2
 2002/12/05, 8:45,21.1,61.5,14.9,14.2
 2002/12/05, 9:00,20.9,62,14.9,14.2
 2002/12/05, 9:15,21.9,59.5,14.9,14.3
 2002/12/05, 9:30,22.2,59,15,14.3
 2002/12/05, 9:45,21.5,59.5,15.1,14.3
 2002/12/05,10:00,20.7,62,15.2,14.3
 2002/12/05,10:15,20.2,63.5,15.3,14.3
 2002/12/05,10:30,20.2,64,15.4,14.3
 2002/12/05,10:45,20.2,63,15.6,14.3
 2002/12/05,11:00,20.6,62,15.8,14.4
 2002/12/05,11:15,21,60.5,15.9,14.4
 2002/12/05,11:30,21.2,60,16,14.4
 2002/12/05,11:45,21.5,60,16,14.4
 2002/12/05,12:00,21.8,59,16.3,14.4
 2002/12/05,12:15,22,56.5,16.4,14.5
 2002/12/05,12:30,21.9,52,16.5,14.5
 2002/12/05,12:45,21.8,52,16.7,14.5
 2002/12/05,13:00,21.8,54,16.9,14.5
 2002/12/05,13:15,21.4,57,17,14.6
 2002/12/05,13:30,21,59,17,14.6
 2002/12/05,13:45,21,59,17,14.6
 2002/12/05,14:00,21.2,58,17.1,14.6
 2002/12/05,14:15,21.3,57,17.5,14.7
 2002/12/05,14:30,21.2,56,18.1,14.7
 2002/12/05,14:45,21,57.5,18.4,14.8
 2002/12/05,15:00,20.9,58,18.4,14.8
 2002/12/05,15:15,20.6,58,18.4,14.8
 2002/12/05,15:30,20.2,57,18.5,14.9
 2002/12/05,15:45,20,58.5,18.6,14.9
 2002/12/05,16:00,19.8,61,18.4,15
 2002/12/05,16:15,19.6,61,18.3,15
 2002/12/05,16:30,19.4,62,18.2,15.1
 2002/12/05,16:45,19.2,61,17.8,15.1
 2002/12/05,17:00,19,60,17.8,15.2
 2002/12/05,17:15,19,62,17.9,15.2
 2002/12/05,17:30,18.8,63,17.8,15.3
 2002/12/05,17:45,18.6,63,17.8,15.4
 2002/12/05,18:00,18.6,64,17.7,15.4
 2002/12/05,18:15,18.5,69,17.7,15.4
 2002/12/05,18:30,18.5,67,17.6,15.5
 2002/12/05,18:45,18.4,65.5,17.5,15.6
 2002/12/05,19:00,18.5,68,17.6,15.6
 2002/12/05,19:15,18.5,73.5,17.6,14.5
 2002/12/05,19:30,18.7,71,17.2,14.5
 2002/12/05,19:45,18.9,70.5,17,14.6
 2002/12/05,20:00,19,73,16.9,14.6
 2002/12/05,20:15,18.9,70.5,16.9,14.6
 2002/12/05,20:30,18.9,70,16.9,14.7
 2002/12/05,20:45,19,70.5,16.8,14.7
 2002/12/05,21:00,20.9,63,16.8,14.8
 2002/12/05,21:15,21,65,16.8,14.8
 2002/12/05,21:30,21.3,65,16.8,14.8
 2002/12/05,21:45,21.6,64.5,16.9,14.8
 2002/12/05,22:00,21.8,64,16.8,14.9
 2002/12/05,22:15,22.1,63,16.9,14.9
 2002/12/05,22:30,22.4,62,16.9,15
 2002/12/05,22:45,22.4,61,17,14.9
 2002/12/05,23:00,22.5,61,17,15
 2002/12/05,23:15,22.6,61.5,17,15.1
 2002/12/05,23:30,22.7,63,17,15.1
 2002/12/05,23:45,22.7,62,17,15.1
 2002/12/06, 0:00,21.9,61,17,15.2
 2002/12/06, 0:15,21.2,62,17,15.2
 2002/12/06, 0:30,20.7,63,16.9,15.2
 2002/12/06, 0:45,20.4,65.5,16.9,15.3
 2002/12/06, 1:00,20.1,71,16.8,15.3
 2002/12/06, 1:15,19.8,69.5,16.8,15.3
 2002/12/06, 1:30,19.6,70,16.8,15.3
 2002/12/06, 1:45,19.2,66,16.8,15.4
 2002/12/06, 2:00,18.9,65,16.8,15.4
 2002/12/06, 2:15,18.6,65,16.7,15.4
 2002/12/06, 2:30,18.4,65,16.7,15.4
 2002/12/06, 2:45,18.2,65,16.6,15.4
 2002/12/06, 3:00,18.1,65,16.5,15.5
 2002/12/06, 3:15,18,64,16.5,15.5
 2002/12/06, 3:30,17.7,64,16.4,15.5
 2002/12/06, 3:45,17.5,64,16.4,15.4
 2002/12/06, 4:00,17.4,64,16.4,15.5
 2002/12/06, 4:15,17.2,64,16.4,15.5
 2002/12/06, 4:30,17.1,64,16.3,15.4
 2002/12/06, 4:45,17,64,16.2,15.6
 2002/12/06, 5:00,16.9,64,16.1,15.6
 2002/12/06, 5:15,16.8,64,16,15.6
 2002/12/06, 5:30,16.6,64,15.9,15.6
 2002/12/06, 5:45,16.5,64,15.9,15.6
 2002/12/06, 6:00,16.4,64,15.8,15.6
 2002/12/06, 6:15,16.3,64,15.7,15.6
 2002/12/06, 6:30,16.2,64,15.7,15.6
 2002/12/06, 6:45,16,64,15.6,15.6
 2002/12/06, 7:00,16,64,15.5,15.6
 2002/12/06, 7:15,15.9,64,15.4,15.2
 2002/12/06, 7:30,17.4,61,15.3,14.9
 2002/12/06, 7:45,19.8,55.5,15.3,14
 2002/12/06, 8:00,20.3,58,15.3,14
 2002/12/06, 8:15,21.2,56,15.3,14.1
 2002/12/06, 8:30,22.3,53,15.3,14.1
 2002/12/06, 8:45,22.5,53.5,15.4,14.1
 2002/12/06, 9:00,22.8,52,15.4,14.1
 2002/12/06, 9:15,22.4,53,15.4,14.1
 2002/12/06, 9:30,21.6,55,15.4,14.2
 2002/12/06, 9:45,21.6,55,15.4,14.1
 2002/12/06,10:00,22,55,15.5,14
 2002/12/06,10:15,22,55.5,15.6,14.1
 2002/12/06,10:30,21.4,55,16,14.2
 2002/12/06,10:45,20.9,50,16.4,14.2
 2002/12/06,11:00,20.7,50,16.6,14.2
 2002/12/06,11:15,20.6,51,16.7,14.2
 2002/12/06,11:30,20.5,51,16.9,14.3
 2002/12/06,11:45,20.2,51.5,17,14.3
 2002/12/06,12:00,20.1,52,17,14.3
 2002/12/06,12:15,20.4,51.5,17,14.3
 2002/12/06,12:30,20.4,51,17.2,14.3
 2002/12/06,12:45,20.2,51.5,17.2,14.3
 2002/12/06,13:00,19.5,53,17.1,14.4
 2002/12/06,13:15,19,54,17,14.4
 2002/12/06,13:30,18.5,55,16.9,14.4
 2002/12/06,13:45,18.3,55,16.8,14.4
 2002/12/06,14:00,18,55,16.7,14.4
 2002/12/06,14:15,17.9,55.5,16.5,14.5
 2002/12/06,14:30,17.7,55,16.5,14.5
 2002/12/06,14:45,17.6,55.5,16.5,14.4
 2002/12/06,15:00,17.4,56,16.4,14.5
 2002/12/06,15:15,17.2,56,16.3,14.4
 2002/12/06,15:30,17,56,16.2,14.5
 2002/12/06,15:45,16.9,56,16.1,14.5
 2002/12/06,16:00,16.6,56,16,14.6
 2002/12/06,16:15,16.5,55,15.9,14.6
 2002/12/06,16:30,16.3,55,15.7,14.6
 2002/12/06,16:45,16.1,55,15.6,14.6
 2002/12/06,17:00,16,55,15.4,14.6
 2002/12/06,17:15,15.8,56,15.3,14.7
 2002/12/06,17:30,15.6,56,15.2,14.7
 2002/12/06,17:45,15.4,56,15.1,14.7
 2002/12/06,18:00,15.3,56,14.9,14.7
 2002/12/06,18:15,15.1,56.5,14.8,14.7
 2002/12/06,18:30,15,56,14.7,14.7
 2002/12/06,18:45,14.8,57,14.6,14.7
 2002/12/06,19:00,14.7,57,14.5,14.7
 2002/12/06,19:15,14.6,57.5,14.3,14.7
 2002/12/06,19:30,14.8,58,14.2,14.7
 2002/12/06,19:45,19.7,48.5,14.1,14.6
 2002/12/06,20:00,20.9,48,14.1,14.6
 2002/12/06,20:15,21.2,48,14.1,14.6
 2002/12/06,20:30,20.5,51,14,14.6
 2002/12/06,20:45,21,50,14,14.2
 2002/12/06,21:00,21.6,49,14,13.7
 2002/12/06,21:15,21,50.5,13.9,13.8
 2002/12/06,21:30,21.2,53,13.9,13.8
 2002/12/06,21:45,21.5,54.5,13.9,13.8
 2002/12/06,22:00,21.6,54,13.9,13.8
 2002/12/06,22:15,20.9,55,13.8,13.7
 2002/12/06,22:30,21.4,54,13.8,13.7
 2002/12/06,22:45,22,51.5,13.8,13.7
 2002/12/06,23:00,22,52,13.8,13.6
 2002/12/06,23:15,21.3,52.5,13.8,13.7
 2002/12/06,23:30,20.8,54,13.9,13.6
 2002/12/06,23:45,20.5,54,13.9,13.6
 2002/12/07, 0:00,21.2,52,13.8,13.7
 2002/12/07, 0:15,21.5,51.5,13.8,13.6
 2002/12/07, 0:30,21.5,51,13.8,13.6
 2002/12/07, 0:45,21,52.5,13.8,13.6
 2002/12/07, 1:00,21.5,51,13.7,13.6
 2002/12/07, 1:15,21.4,53,13.7,13.6
 2002/12/07, 1:30,21.6,52,13.8,13.6
 2002/12/07, 1:45,20.9,55,13.8,13.5
 2002/12/07, 2:00,20.6,56,13.7,13.5
 2002/12/07, 2:15,20.4,56,13.7,13.5
 2002/12/07, 2:30,19.2,56,13.8,13.5
 2002/12/07, 2:45,18.3,51,13.9,13.5
 2002/12/07, 3:00,17.5,52,14,13.4
 2002/12/07, 3:15,17,53,13.9,13.4
 2002/12/07, 3:30,16.5,54,13.9,13.4
 2002/12/07, 3:45,16,54,13.8,13.4
 2002/12/07, 4:00,15.7,55,13.7,13.4
 2002/12/07, 4:15,15.5,55.5,13.6,13.4
 2002/12/07, 4:30,15.2,56,13.6,13.4
 2002/12/07, 4:45,15,56,13.4,13.4
 2002/12/07, 5:00,14.7,56,13.4,13.3
 2002/12/07, 5:15,14.6,57,13.4,13.3
 2002/12/07, 5:30,14.4,57,13.3,13.3
 2002/12/07, 5:45,14.2,57.5,13.2,13.3
 2002/12/07, 6:00,14.1,58,13.1,13.3
 2002/12/07, 6:15,13.9,58,13.1,13.2
 2002/12/07, 6:30,13.8,58,13.1,13.3
 2002/12/07, 6:45,13.7,58.5,13,13.2
 2002/12/07, 7:00,13.6,59,13,13.2
 2002/12/07, 7:15,13.5,59,12.9,13.2
 2002/12/07, 7:30,13.4,59,12.9,13.1
 2002/12/07, 7:45,13.3,59,12.8,13.1
 2002/12/07, 8:00,13.2,59,12.8,13.1
 2002/12/07, 8:15,13.1,59,12.8,13.1
 2002/12/07, 8:30,13.1,59,12.7,13.1
 2002/12/07, 8:45,16.8,53,12.6,13.2
 2002/12/07, 9:00,18.7,51,12.7,13.2
 2002/12/07, 9:15,20,51.5,12.8,13.2
 2002/12/07, 9:30,20.3,51,12.9,13.2
 2002/12/07, 9:45,20.8,51,12.9,13.2
 2002/12/07,10:00,20.8,51,12.8,13.2
 2002/12/07,10:15,20.2,53,12.8,13.2
 2002/12/07,10:30,20.1,53,12.9,13.2
 2002/12/07,10:45,21.9,50,12.9,13.2
 2002/12/07,11:00,23.2,47,12.9,13.2
 2002/12/07,11:15,22.5,49,12.9,13.1
 2002/12/07,11:30,21.5,51,13,13
 2002/12/07,11:45,21.4,51,13.4,13.1
 2002/12/07,12:00,21.3,51,13.3,13.1
 2002/12/07,12:15,21.2,52,13.4,13.1
 2002/12/07,12:30,21.3,54,13.4,13.1
 2002/12/07,12:45,21.5,55.5,13.4,13.1
 2002/12/07,13:00,21.6,55,13.4,13.1
 2002/12/07,13:15,21.5,54,13.4,13.1
 2002/12/07,13:30,20.9,55,13.3,13.1
 2002/12/07,13:45,21,55,13.3,13.1
 2002/12/07,14:00,20.8,53,13.3,13.1
 2002/12/07,14:15,20.9,56.5,13.3,13.1
 2002/12/07,14:30,20.5,59,13.4,13.1
 2002/12/07,14:45,20.5,60,13.4,13.1
 2002/12/07,15:00,20.8,60,13.5,13.5
 2002/12/07,15:15,21.5,56.5,13.4,13.6
 2002/12/07,15:30,21.7,56,13.4,13.6
 2002/12/07,15:45,21.7,56,13.3,13.6
 2002/12/07,16:00,21.7,55,13.3,13.6
 2002/12/07,16:15,21.8,55,13.3,13.5
 2002/12/07,16:30,21.2,55,13.3,13.5
 2002/12/07,16:45,20.8,55.5,13.4,13.5
 2002/12/07,17:00,20.8,56,13.4,13.5
 2002/12/07,17:15,20.7,52.5,13.6,13.5
 2002/12/07,17:30,19.9,54,13.6,13.5
 2002/12/07,17:45,18.8,55,13.9,13.4
 2002/12/07,18:00,18,56,14.2,13.5
 2002/12/07,18:15,17.5,57,14.2,13.4
 2002/12/07,18:30,17.2,57,14.4,13.4